Content
SEND FEEDBACK

Daily
Averages
Monthly
Summary
United States of America

AGANA, GUAM


Home > North America > United States > Guam
Elevation: 74 meters     Latitude: 13 29N     Longitude: 144 48E

WEATHER
 
SELECT A DAY
Number of Records: 214,904;   Date Range: 1/1/95 - 11/25/14
 
SHARE

PRINT THIS DATA

[ ← Previous Day ]
WEATHER ALMANAC - 3 JANUARY, 2013
[ Next Day → ]
[ °F ]   °C
Weather ElementAverageHighLow
Temperature27.1 °C29.4 °C (12:54 pm)26 °C (1:15 am)
Dewpoint22.3 °C25 °C (1:15 am)18.3 °C (5:54 pm)
Humidity75.5 %94 % (1:15 am)55 % (3:54 pm)
Barometer1010.8 hPa1013.2 hPa (8:01 am)1008.5 hPa (3:54 pm)
Wind Speed25.6 km/h38.9 km/h (1:54 pm)
Wind Gust48.1 km/h (12:54 pm)
Weather ElementAverage
Visibility15.3 km
Wind DirectionENE (75.4 °)

Weather ElementTotal
Precipitation4.32 mm
Cooling Degree Days9.4 (Base 18.3)
Growing Degree Days17.7 (Base 10)
Averaged from 28 records on 3 January, 2013
WEATHER CONDITIONS BREAKOUT
WIND DIRECTION BREAKOUT
WEATHER BY HOUR - 3 JANUARY, 2013
[ °F ]   °C
Local TimeTemperatureDewpointHumidityBarometerVisibilityWind DirectionWind SpeedGust SpeedPrecipitationEventsConditions
1:15 AM26 °C25 °C94 %1012.5 hPa6.4 kmEast (80°)22.2 km/h31.5 km/h1.02 mmRainLight Rain
1:24 AM26 °C24 °C89 %1012.5 hPa14.5 kmEast (80°)24.1 km/h40.7 km/h1.02 mmRainLight Rain
1:54 AM26.1 °C23.9 °C88 %1011.5 hPa16.1 kmEast (80°)31.5 km/h1.27 mmScattered Clouds
2:54 AM26.1 °C24.4 °C90 %1010.8 hPa14.5 kmEast (80°)18.5 km/h35.2 km/h0 mmRainLight Rain
3:01 AM26 °C24 °C89 %1011.5 hPa16.1 kmEast (80°)18.5 km/h0 mmMostly Cloudy
3:54 AM26.7 °C23.3 °C81 %1010.5 hPa16.1 kmENE (70°)25.9 km/h42.6 km/h0 mmScattered Clouds
4:54 AM26.1 °C23.9 °C88 %1010.8 hPa16.1 kmEast (80°)27.8 km/hClear
5:54 AM26.1 °C23.3 °C84 %1011.2 hPa16.1 kmEast (80°)20.4 km/hPartly Cloudy
6:54 AM26.1 °C22.2 °C79 %1011.5 hPa16.1 kmEast (80°)27.8 km/hPartly Cloudy
7:54 AM26.7 °C23.3 °C81 %1012.2 hPa12.9 kmEast (80°)27.8 km/h40.7 km/h0 mmRainLight Rain
8:01 AM27 °C23 °C79 %1013.2 hPa16.1 kmEast (80°)33.3 km/h40.7 km/h0 mmRainLight Rain
8:35 AM26 °C24 °C89 %1013.2 hPa9.7 kmENE (70°)20.4 km/h0.25 mmRainLight Rain
8:54 AM26.7 °C23.9 °C85 %1012.9 hPa16.1 kmENE (70°)27.8 km/h38.9 km/h0.25 mmRainLight Rain
9:54 AM27.2 °C22.2 °C74 %1012.5 hPa16.1 kmEast (80°)24.1 km/h0.25 mmScattered Clouds
10:54 AM28.3 °C22.8 °C72 %1012.2 hPa16.1 kmENE (70°)35.2 km/h44.4 km/h0.25 mmRainLight Rain
11:54 AM28.9 °C22.8 °C69 %1011.2 hPa16.1 kmEast (80°)25.9 km/h38.9 km/hMostly Cloudy
12:54 PM29.4 °C22.2 °C65 %1010.5 hPa16.1 kmEast (80°)37 km/h48.1 km/hScattered Clouds
1:54 PM29.4 °C21.1 °C61 %1009.5 hPa16.1 kmENE (70°)38.9 km/h48.1 km/h0 mmClear
2:54 PM28.9 °C21.7 °C65 %1008.8 hPa16.1 kmENE (70°)31.5 km/h40.7 km/hPartly Cloudy
3:54 PM29.4 °C19.4 °C55 %1008.5 hPa16.1 kmENE (70°)33.3 km/h48.1 km/hPartly Cloudy
4:54 PM28.3 °C20 °C60 %1008.8 hPa16.1 kmENE (70°)25.9 km/h37 km/hScattered Clouds
5:54 PM27.8 °C18.3 °C56 %1009.1 hPa16.1 kmENE (70°)14.8 km/hScattered Clouds
6:54 PM27.2 °C19.4 °C62 %1009.5 hPa16.1 kmEast (80°)25.9 km/hMostly Cloudy
7:54 PM26.7 °C20.6 °C69 %1009.8 hPa16.1 kmENE (70°)22.2 km/h35.2 km/hPartly Cloudy
8:54 PM26.7 °C21.1 °C71 %1010.5 hPa16.1 kmENE (70°)20.4 km/hScattered Clouds
9:54 PM26.7 °C21.1 °C71 %1010.5 hPa16.1 kmENE (70°)20.4 km/hScattered Clouds
10:54 PM26.7 °C21.1 °C71 %1010.2 hPa16.1 kmEast (80°)16.7 km/hPartly Cloudy
11:54 PM26.1 °C21.7 °C77 %1009.8 hPa16.1 kmENE (70°)18.5 km/hPartly Cloudy
Hourly data recorded from PGUM, located 0 kilometers away from Agana, Guam







STORIES FROM OUR PARTNERS